Location: Bellflower
(33.8817°N, 118.1170°W)
Time: 23:35:59
(UTC+00:00)

BREEZE-M DEB (TANK) - Pass Details

Date: 23 November 2020
Orbit: 357 x 16370 km, 49.4° (Epoch: 19 January)

Event Time Altitude Azimuth Distance (km) Brightness Sun altitude
Exits shadow 12:46:38 32° 179° (S) 765 3.1 -21.8°
Maximum altitude 12:47:32 45° 130° (SE) 675 3.1 -21.6°
Drops below altitude 10° 12:52:22 10° 57° (ENE) 2,720 6.4 -20.6°
Sets 12:56:58 0° 52° (NE) 4,927 7.7 -19.7°
